IRIDIUM 58 [B] (25274 NORAD) Tracking and Keplerian Element Data

This shows tracking and keplerian element data for the satellite.

Feedback or suggestion? Click here.




ElementValue
Catalog25274
NameIRIDIUM 58 [B]
Epoch Orbit8082
Epoch Day323.43029749
Epoch Year2018
RAAN70.0711
Inclination86.4232
Eccentricity0.0002479
Argument of Perigee91.5258
Mean Anonmoly268.6224
Mean Motion14.3860099
Decay Rate1.59E-06
L11 25274U 98019C 18323.43029749 .00000159 00000-0 45507-4 0 9992
L22 25274 86.4232 70.0711 0002479 91.5258 268.6224 14.38600990 80823

Live tracking and technical data element details for IRIDIUM 58 [B] (NORAD 25274). IRIDIUM 58 [B] can be tracked NOW for your location showing map with azimuth and elevation plus other details from your city location.

Track the satellite on the map from your city or location and see movement details for azimuth, elevation, latitude, longitude, range, height, and movement on the map or in text.







IsCatalogInMostPopularTable: catalog: 25274, numindb: 52
Update: records affected: 1



GetName: 25274 IRIDIUM 58 [B]

Hit Count: updated at: Wed, 21 Nov 2018 06:19:17 GMT